Tracking 19636 objects as of 24-May-2019
HD Live streaming from Space Station
objects crossing your sky now

GLOBALSTAR M014

Track GLOBALSTAR M014 now!
10-day predictions
GLOBALSTAR M014 is classified as:


NORAD ID: 25306
Int'l Code: 1998-023A
Perigee: 1,846.3 km
Apogee: 1,846.9 km
Inclination: 52.0 °
Period: 123.6 minutes
Semi major axis: 8217 km
RCS: 2.6934 m2 (large)
Launch date: April 24, 1998
Source: Globalstar (GLOB)
Launch site: AIR FORCE EASTERN TEST RANGE (AFETR)
aabbcc
Your satellite tracking list
Your tracking list is empty




NASA's NSSDC Master Catalog

Two Line Element Set (TLE):
1 25306U 98023A   19143.93477024 -.00000082 +00000-0 -78438-4 0  9998
2 25306 051.9862 006.6177 0000410 126.2374 334.7797 11.65425864932833
Source of the keplerian elements: AFSPC